Вернуться в каталог

ONEWEB-0702

АктивенСвязьPO
NORAD 61608·PAYLOAD·🇬🇧 United Kingdom

Запущен Oct 20, 2024 с Vandenberg Space Force Base

Loading…

Ближайшие Пролёты (ближайшие 24 часа)

TLE

СвежийSource: CelesTrak SupGP

Эпоха: Sep 14, 2026, 16:34 UTC

1 61608C 24188Q   26257.69045556  .00004038  00000+0  11408-1 0  2572
2 61608  87.8990   3.2053 0000643  88.9843  15.8967 13.11413567    19

Отслеживайте ONEWEB-0702 в реальном времени с AllMySat

Download on the App Store